Simultaneous Nadir Overpasses (SNOs) Predictions

Prediction of SNOs between FY3D and AQUA Satellite Orbit:

Table of predicted SNOs for the next 14.0 days since TLE Epoch: 2/7/2020
Index Date (FY3D) Time (FY3D) Lat,Lon (FY3D) SZA (FY3D ) Date (AQUA) Time (AQUA) Lat,Lon (AQUA) SZA (AQUA ) Distance(km) Time Diff (sec)
1 02/08/2020 02:47:12 -68.13,-177.08 59.01 02/08/2020 02:47:50 -68.13,-177.07 59.06 0.31 38
2 02/08/2020 03:36:52 71.46, -4.77 117.56 02/08/2020 03:36:14 71.46, -4.79 117.61 0.74 38
3 02/10/2020 19:03:49 -67.47, -61.99 59.17 02/10/2020 19:04:33 -67.48, -61.95 59.23 1.87 44
4 02/10/2020 19:53:28 70.87, 110.12 117.36 02/10/2020 19:52:56 70.87, 110.15 117.38 1.53 32
5 02/13/2020 11:20:06 -67.88, 54.41 60.43 02/13/2020 11:20:57 -67.88, 54.38 60.48 1.43 51
6 02/13/2020 12:09:47 71.16,-133.49 116.20 02/13/2020 12:09:22 71.15,-133.53 116.24 1.47 25
7 02/16/2020 03:36:42 -67.22, 169.51 60.64 02/16/2020 03:37:39 -67.22, 169.51 60.71 0.04 57
8 02/16/2020 04:26:22 70.56, -18.59 115.95 02/16/2020 04:26:03 70.56, -18.57 115.96 0.74 19
9 02/18/2020 19:53:19 -66.54, -75.36 60.87 02/18/2020 19:54:22 -66.54, -75.33 60.96 1.26 63
10 02/18/2020 20:42:42 70.79, 97.69 114.79 02/18/2020 20:42:30 70.78, 97.63 114.82 2.28 12
11 02/21/2020 12:09:35 -67.00, 41.06 62.27 02/21/2020 12:10:45 -66.99, 41.01 62.33 2.18 70
12 02/21/2020 12:59:18 70.17,-147.39 114.48 02/21/2020 12:59:12 70.17,-147.39 114.49 0.20 6




NCC Satellite Simultaneous Nadir Overpasses (SNOs) Prediction Service
